Weather History for Grants-Milan, NM

Change the Weather History Date:

Wednesday, February 6, 2013

  Actual Average Record
Temperature  
Mean Temperature 34 °F -  
Max Temperature 54 °F 47 °F 67 °F (1963)
Min Temperature 14 °F 16 °F -3 °F (1964)
Degree Days  
Heating Degree Days 31    
Moisture  
Dew Point 19 °F    
Average Humidity 56    
Maximum Humidity 82    
Minimum Humidity 31    
Precipitation  
Precipitation 0.03 in - - ()
Sea Level Pressure  
Sea Level Pressure 30.02 in    
Wind  
Wind Speed 6 mph (NW)    
Max Wind Speed 14 mph    
Max Gust Speed 20 mph    
Visibility 10 miles    
Events Thunderstorm    
Averages and records for this station are not official NWS values.
T = Trace of Precipitation, MM = Missing Value Source: NWS Daily Summary

Daily Weather History Graph

Daily Weather History Graph

Search for Another Location

Airport:

Trip Planner

Search our weather history database for the weather conditions in past years. The results will help you decide how hot, cold, wet, or windy it might be!

Date:

Astronomy

Feb. 06, 2013 Rise Set
Actual Time 7:06 AM MST 5:45 PM MST
Civil Twilight 6:39 AM MST 6:11 PM MST
Nautical Twilight 6:09 AM MST 6:42 PM MST
Astronomical Twilight 5:40 AM MST 7:11 PM MST
Moon 3:48 AM MST (2/6) 2:11 PM MST (2/6)
Length of Visible Light 11h 31m
Length of Day
10h 39m
Waning Crescent, 16% of the Moon is Illuminated
Feb 6
Waning Crescent
Feb 10
New
Feb 17
First Quarter
Feb 25
Full
Mar 4
Last Quarter

Hourly Weather History & Observations

Time (MST) Temp. Windchill Dew Point Humidity Pressure Visibility Wind Dir Wind Speed Gust Speed Precip Events Conditions
12:15 AM 25.0 °F 17.1 °F 13.6 °F 62% 30.06 in 10.0 mi WNW 6.9 mph - N/A   Clear
12:35 AM 23.9 °F - 11.5 °F 59% 30.06 in 10.0 mi Calm Calm - N/A   Clear
12:55 AM 20.3 °F 13.8 °F 9.9 °F 64% 30.06 in 10.0 mi NW 4.6 mph - N/A   Clear
1:15 AM 20.7 °F 14.2 °F 10.8 °F 66% 30.06 in 10.0 mi NW 4.6 mph - N/A   Clear
1:35 AM 21.6 °F 13.0 °F 11.1 °F 64% 30.06 in 10.0 mi NW 6.9 mph - N/A   Clear
1:55 AM 20.7 °F 11.9 °F 10.4 °F 65% 30.06 in 10.0 mi WNW 6.9 mph - N/A   Clear
2:15 AM 19.4 °F 11.5 °F 10.0 °F 67% 30.06 in 10.0 mi NW 5.8 mph - N/A   Clear
2:35 AM 20.3 °F 13.8 °F 11.8 °F 70% 30.04 in 10.0 mi NW 4.6 mph - N/A   Clear
2:55 AM 19.2 °F 14.1 °F 11.8 °F 73% 30.04 in 10.0 mi NNE 3.5 mph - N/A   Clear
3:15 AM 16.0 °F - 9.9 °F 77% 30.03 in 10.0 mi Calm Calm - N/A   Clear
3:35 AM 15.8 °F - 8.4 °F 73% 30.02 in 10.0 mi Calm Calm - N/A   Clear
3:55 AM 16.9 °F 11.5 °F 9.0 °F 71% 30.02 in 10.0 mi WNW 3.5 mph - N/A   Clear
4:15 AM 14.7 °F 7.3 °F 8.1 °F 75% 30.01 in 10.0 mi NNW 4.6 mph - N/A   Clear
4:35 AM 15.8 °F 6.1 °F 9.9 °F 77% 30.01 in 10.0 mi NW 6.9 mph - N/A   Clear
4:55 AM 16.9 °F 6.4 °F 9.5 °F 73% 30.01 in 10.0 mi NW 8.1 mph - N/A   Clear
5:15 AM 17.6 °F 8.2 °F 10.6 °F 74% 30.02 in 10.0 mi NW 6.9 mph - N/A   Clear
5:35 AM 17.4 °F 9.1 °F 11.7 °F 78% 30.02 in 10.0 mi NW 5.8 mph - N/A   Clear
5:55 AM 19.0 °F 10.0 °F 13.5 °F 79% 30.02 in 10.0 mi NW 6.9 mph - N/A   Clear
6:15 AM 16.7 °F 9.6 °F 11.7 °F 81% 30.02 in 10.0 mi NW 4.6 mph - N/A   Clear
6:35 AM 16.5 °F 11.0 °F 11.8 °F 82% 30.02 in 10.0 mi North 3.5 mph - N/A   Clear
6:55 AM 14.5 °F 7.1 °F 9.0 °F 79% 30.02 in 10.0 mi NNW 4.6 mph - N/A   Clear
7:15 AM 15.6 °F - 10.8 °F 81% 30.03 in 10.0 mi Calm Calm - N/A   Clear
7:35 AM 14.9 °F - 9.5 °F 79% 30.03 in 10.0 mi Calm Calm - N/A   Clear
7:55 AM 20.3 °F 15.4 °F 12.0 °F 70% 30.04 in 10.0 mi NW 3.5 mph - N/A   Clear
8:15 AM 23.0 °F 15.8 °F 12.7 °F 65% 30.04 in 10.0 mi NW 5.8 mph - N/A   Clear
8:35 AM 25.7 °F 18.0 °F 14.7 °F 63% 30.04 in 10.0 mi NW 6.9 mph - N/A   Clear
8:55 AM 28.6 °F 24.8 °F 16.2 °F 60% 30.04 in 10.0 mi NW 3.5 mph - N/A   Clear
9:15 AM 32.7 °F - 18.5 °F 56% 30.04 in 10.0 mi Calm Calm - N/A   Scattered Clouds
9:35 AM 36.1 °F - 18.7 °F 49% 30.04 in 10.0 mi Calm Calm - N/A   Scattered Clouds
9:55 AM 39.2 °F - 19.4 °F 45% 30.04 in 10.0 mi Calm Calm - N/A   Overcast
10:15 AM 42.1 °F - 19.8 °F 41% 30.04 in 10.0 mi Calm Calm - N/A   Mostly Cloudy
10:35 AM 47.8 °F - 26.1 °F 43% 30.03 in 10.0 mi Calm Calm - N/A   Clear
11:15 AM 51.8 °F - 28.8 °F 41% 30.01 in 10.0 mi Calm Calm - N/A   Clear
11:35 AM 54.5 °F - 28.4 °F 37% 30.01 in 10.0 mi Calm Calm - N/A Thunderstorm Thunderstorm
11:55 AM 52.9 °F - 28.4 °F 39% 30.00 in 10.0 mi WSW 11.5 mph 17.3 mph N/A   Mostly Cloudy
12:15 PM - - - N/A% - - North - - N/A   Unknown
12:35 PM 54.0 °F - 28.4 °F 37% 29.99 in 10.0 mi WSW 13.8 mph 19.6 mph 0.03 in   Scattered Clouds
12:55 PM 53.6 °F - 28.2 °F 38% 29.98 in 10.0 mi WSW 9.2 mph - 0.03 in   Scattered Clouds
1:15 PM 52.7 °F - 25.7 °F 35% 29.97 in 10.0 mi NW 8.1 mph 16.1 mph N/A   Scattered Clouds
1:35 PM 53.2 °F - 25.9 °F 35% 29.97 in 10.0 mi West 8.1 mph - N/A   Clear
1:55 PM 54.1 °F - 25.7 °F 33% 29.96 in 10.0 mi WNW 10.4 mph 16.1 mph N/A   Clear
2:35 PM 54.5 °F - 25.9 °F 33% 29.96 in 10.0 mi WNW 11.5 mph - N/A   Scattered Clouds
2:55 PM 54.5 °F - 25.9 °F 33% 29.96 in 10.0 mi WNW 10.4 mph - N/A   Scattered Clouds
3:15 PM 54.1 °F - 26.4 °F 34% 29.96 in 10.0 mi WNW 11.5 mph 17.3 mph N/A   Scattered Clouds
3:35 PM 53.6 °F - 25.3 °F 34% 29.95 in 10.0 mi WNW 11.5 mph - N/A   Scattered Clouds
3:55 PM 53.2 °F - 25.2 °F 34% 29.96 in 10.0 mi WNW 10.4 mph 16.1 mph N/A   Scattered Clouds
4:15 PM 53.8 °F - 24.6 °F 32% 29.96 in 10.0 mi WNW 12.7 mph - N/A   Mostly Cloudy
4:35 PM 53.4 °F - 24.8 °F 33% 29.97 in 10.0 mi West 11.5 mph 16.1 mph N/A   Overcast
4:55 PM 54.1 °F - 24.3 °F 31% 29.97 in 10.0 mi WNW 10.4 mph - N/A   Overcast
5:15 PM 52.0 °F - 23.7 °F 33% 29.98 in 10.0 mi West 12.7 mph - N/A   Overcast
5:35 PM 50.9 °F - 23.5 °F 34% 29.98 in 10.0 mi NW 13.8 mph - N/A   Overcast
5:55 PM 49.6 °F - 23.0 °F 35% 29.99 in 10.0 mi NW 12.7 mph - N/A   Overcast
6:15 PM 47.3 °F - 23.7 °F 40% 30.00 in 10.0 mi NW 9.2 mph - N/A   Overcast
6:35 PM 47.5 °F - 22.6 °F 38% 30.01 in 10.0 mi NW 8.1 mph - N/A   Mostly Cloudy
6:55 PM 45.1 °F 39.9 °F 22.5 °F 41% 30.01 in 10.0 mi WNW 10.4 mph 19.6 mph N/A   Mostly Cloudy
7:15 PM 42.6 °F 37.8 °F 21.2 °F 43% 30.02 in 10.0 mi WNW 8.1 mph - N/A   Mostly Cloudy
7:35 PM 41.4 °F 36.8 °F 23.0 °F 48% 30.02 in 10.0 mi West 6.9 mph - N/A   Mostly Cloudy
7:55 PM 42.1 °F 37.7 °F 24.6 °F 50% 30.02 in 10.0 mi WNW 6.9 mph - N/A   Scattered Clouds
8:15 PM 41.7 °F 36.7 °F 24.8 °F 51% 30.04 in 10.0 mi NW 8.1 mph - N/A   Mostly Cloudy
8:35 PM 39.0 °F 35.7 °F 24.4 °F 56% 30.05 in 10.0 mi NNW 4.6 mph - N/A   Overcast
8:55 PM 36.7 °F 32.0 °F 23.9 °F 60% 30.06 in 10.0 mi North 5.8 mph - N/A   Mostly Cloudy
9:15 PM 36.1 °F 33.5 °F 24.8 °F 63% 30.06 in 10.0 mi NNW 3.5 mph - N/A   Scattered Clouds
9:35 PM 35.8 °F 33.0 °F 24.8 °F 64% 30.06 in 10.0 mi North 3.5 mph - N/A   Clear
9:55 PM 32.9 °F 28.5 °F 22.8 °F 66% 30.06 in 10.0 mi NNW 4.6 mph - N/A   Clear
10:15 PM 31.1 °F - 22.6 °F 71% 30.07 in 10.0 mi Calm Calm - N/A   Clear
10:35 PM 28.9 °F 25.2 °F 21.6 °F 74% 30.07 in 10.0 mi NW 3.5 mph - N/A   Clear
10:55 PM 28.6 °F 24.8 °F 21.2 °F 74% 30.07 in 10.0 mi WNW 3.5 mph - N/A   Clear
11:15 PM 26.4 °F 22.4 °F 20.5 °F 78% 30.07 in 10.0 mi NW 3.5 mph - N/A   Clear
11:35 PM 28.0 °F 18.1 °F 21.7 °F 77% 30.08 in 10.0 mi NNW 11.5 mph - N/A   Mostly Cloudy
11:55 PM 29.8 °F 20.9 °F 22.5 °F 74% 30.08 in 10.0 mi NW 10.4 mph 16.1 mph N/A   Overcast